This demonstration page uses our WeatherBlox Daily Observations layout. Learn more.

Left ArrowRight Arrow

44.89941, -97.11507

Hourly Observations for June 1, 2018

Temp ( °F °C ) Dew Point ( °F °C ) Humidity (%) Winds ( mph kmh ) Pressure ( in mb ) Visibility ( mi km ) Precip ( " mm )
12:53 am 00:53 Clear 69 20.6 54 12.2 59 59 E 7 11 29.80 1009 10 16 0.00 0.00
1:53 am 01:53 Clear 68 20 54 12.2 61 61 E 8 13 29.81 1009 10 16 0.00 0.00
2:53 am 02:53 Clear 65 18.3 55 12.8 70 70 ENE 6 9 29.83 1010 10 16 0.00 0.00
3:53 am 03:53 Clear 64 17.8 57 13.9 78 78 E 8 13 29.82 1010 10 16 0.00 0.00
4:53 am 04:53 Clear 64 17.8 59 15 84 84 ESE 12 19 29.83 1010 10 16 0.00 0.00
5:53 am 05:53 Sunny 63 17.2 59 15 87 87 ESE 8 13 29.84 1010 10 16 0.00 0.00
6:53 am 06:53 Sunny 63 17.2 59 15 87 87 SE 7 11 29.86 1011 10 16 0.00 0.00
7:53 am 07:53 Sunny 65 18.3 60 15.6 84 84 ESE 9 15 29.87 1012 10 16 0.00 0.00
8:53 am 08:53 Sunny 70 21.1 61 16.1 73 73 ESE 10 17 29.87 1012 10 16 0.00 0.00
9:53 am 09:53 Sunny 74 23.3 61 16.1 64 64 SE 12 19 29.87 1011 10 16 0.00 0.00
10:53 am 10:53 Sunny 78 25.6 61 16.1 56 56 ESE 13 20 29.85 1011 10 16 0.00 0.00
11:53 am 11:53 Sunny 81 27.2 59 15 47 47 ESE 12 19 29.83 1010 10 16 0.00 0.00
12:53 pm 12:53 Sunny 84 28.9 58 14.4 41 41 SE 15 24 29.78 1009 10 16 0.00 0.00
1:53 pm 13:53 Sunny 87 30.6 59 15 39 39 SSE 21 33 29.78 1008 10 16 0.00 0.00
2:53 pm 14:53 Sunny 89 31.7 58 14.4 35 35 SE 14 22 29.75 1008 10 16 0.00 0.00
3:53 pm 15:53 Mostly Sunny 88 31.1 57 13.9 35 35 ESE 13 20 29.75 1007 10 16 0.00 0.00
4:53 pm 16:53 Mostly Sunny 90 32.2 57 13.9 33 33 ESE 16 26 29.71 1006 10 16 0.00 0.00
5:53 pm 17:53 Sunny 90 32.2 56 13.3 32 32 ESE 16 26 29.69 1006 10 16 0.00 0.00
6:53 pm 18:53 Sunny 87 30.6 55 12.8 34 34 ESE 12 19 29.67 1005 10 16 0.00 0.00
7:53 pm 19:53 Sunny 85 29.4 56 13.3 37 37 SE 15 24 29.68 1005 10 16 0.00 0.00
8:12 pm 20:12 Partly Cloudy with Nearby Thunderstorms 84 28.9 55 12.8 37 37 ESE 14 22 29.59 1002 10 16 0.00 0.00
8:27 pm 20:27 Mostly Cloudy with Light Rain 82 27.8 57 13.9 42 42 SE 14 22 29.62 1003 10 16 0.00 0.03
8:53 pm 20:53 Mostly Cloudy with Light Rain 81 27.2 58 14.4 45 45 SE 9 15 29.72 1006 10 16 0.00 0.03
9:31 pm 21:31 Cloudy with Nearby Thunderstorms 79 26.1 62 16.7 56 56 ESE 12 19 29.65 1004 10 16 0.02 0.51
9:43 pm 21:43 Cloudy with Thunderstorms 77 25 64 17.8 64 64 S 16 26 29.71 1006 6 10 0.06 1.52
9:53 pm 21:53 Cloudy with Nearby Thunderstorms 69 20.6 62 16.7 78 78 WSW 24 39 29.79 1009 3 5 0.14 3.56
9:55 pm 21:55 Cloudy with Thunderstorms 69 20.6 61 16.1 76 76 WSW 16 26 29.77 1008 3 5 0.06 1.52
10:53 pm 22:53 Cloudy with Nearby Thunderstorms 68 20 61 16.1 78 78 SW 7 11 29.80 1009 10 16 0.09 2.29
11:05 pm 23:05 Mostly Cloudy 68 20 61 16.1 78 78 S 9 15 29.77 1008 10 16 0.00 0.00
11:53 pm 23:53 Cloudy with Light Rain 67 19.4 59 15 76 76 WSW 12 19 29.81 1010 10 16 0.02 0.51

Powered by AerisWeather